Tracking 35035 objects as of 16-Aug-2026
HD Live streaming from Space Station
objects crossing your sky now

COSMOS 1715 DEB


COSMOS 1715 DEB is no longer on orbit


NORAD ID: 16506
Int'l Code: 1986-001D
Launch date: January 8, 1986
Source: Commonwealth of Independent States (former USSR) (CIS)
Launch site: PLESETSK MISSILE AND SPACE COMPLEX (PKMTR)
Decay date: 1986-01-27

Note: This is SATELLITE DEBRIS
Your satellite tracking list
Your tracking list is empty




NASA's NSSDC Master Catalog

Two Line Element Set (TLE):
1 16506U 86001D   86026.79006668  .11413739 +84316-5 +98143-3 0  9991
2 16506 072.7953 236.3990 0002630 310.1607 050.4086 16.39306058002954
Source of the keplerian elements: AFSPC